SCP
0 0 0 0 0 1 1 0 0 0 0 0 0 0 0 0 0 0 0 0 0 0 0 0 0 0 0 0 0 0 0 0 0 0 0 0 0 0 0 0 0 0 0 0 0 0 0 0 0
0 0 0 0 0 0 0 0 0 0 0 0 0 0 0 0 0 0 0 0 0 0 0 0 0 0 0 0 0 0 0 0 0 0 0 0 0 0 0 0 0 0 0 0 0 0 0 0 0
0 0 0 0 0 0 0 0 0 0 0 0 0 0 0 0 0 0 0 0 0 0 0 0 0 0 0 0 0 0 0 0 0 0 0 0 0 0 0 0 0 0 0 0 0 0 0 0 0
0 0 0 0 0 0 0 0 0 0 0 0 0 0 0 0 0 0 0 0 1 0 0 0 1 1 1 0 0 0 0 0 0 0 0 0 0 0 0 0 0 0 0 0 0 0 0 0 0
0 0 0 0 0 0 0 0 0 0 0 0 0 0 0 0 0 0 0 0 1 1 1 1 1 1 1 1 1 0 0 0 0 0 0 0 0 0 0 0 0 0 0 0 0 0 0 0 0
0 0 0 0 0 0 0 0 0 0 0 0 0 0 0 0 0 0 0 1 1 1 1 1 1 1 1 1 1 1 0 0 0 0 0 0 0 0 0 0 0 0 0 0 0 0 0 0 0
0 0 0 0 0 0 0 0 0 0 0 0 0 0 0 0 0 0 0 1 1 2 2 1 1 1 1 1 1 1 1 1 0 0 1 1 1 1 1 1 0 0 0 1 1 1 0 0 0
0 0 0 0 0 0 0 0 0 0 0 0 0 0 0 0 0 0 0 1 1 2 2 1 1 1 1 1 1 1 1 1 1 1 1 1 1 1 1 1 1 1 1 1 1 1 1 1 1
0 0 0 0 0 0 0 0 0 0 0 0 0 0 1 1 0 0 0 1 1 2 2 1 1 1 1 1 1 1 1 1 1 1 1 1 1 1 1 1 1 1 1 1 1 1 1 1 1
0 0 0 0 0 0 0 0 0 0 0 0 1 1 1 1 1 0 0 1 1 2 2 2 2 2 1 1 1 1 1 1 1 1 1 1 1 1 1 2 2 2 2 2 2 2 2 1 1
0 0 0 0 0 0 0 0 0 0 0 1 1 1 1 1 1 1 1 1 2 2 3 3 4 4 3 2 2 2 1 2 2 2 2 2 2 1 1 2 3 3 2 2 2 2 2 1 1
0 0 0 0 0 0 0 0 0 0 0 1 1 1 1 1 1 1 1 2 2 3 4 6 7 7 5 4 3 3 2 2 2 3 3 3 2 2 2 3 4 4 3 3 2 2 2 2 1
0 0 0 0 0 0 0 0 0 0 0 1 1 1 2 2 2 2 2 3 4 5 6 8 10 11 9 6 5 4 4 3 3 4 4 4 3 3 3 4 5 5 4 3 3 3 3 2 2
0 0 0 0 0 0 0 0 0 0 1 1 2 2 4 4 5 5 5 6 7 7 8 9 11 12 10 8 6 5 4 4 4 5 6 5 5 5 6 7 7 6 5 4 4 4 4 3 3
0 0 0 0 0 0 0 0 0 0 1 2 3 5 7 9 9 9 9 9 9 8 9 9 10 10 10 7 6 5 4 4 4 6 7 8 7 8 9 9 9 8 7 6 6 5 5 4 4
0 0 0 0 0 0 0 0 0 0 1 2 4 7 9 10 11 12 12 11 10 9 9 9 8 8 8 8 6 5 4 4 5 7 9 10 10 11 12 11 10 9 8 8 7 6 6 5 4
0 0 0 0 0 0 0 0 0 0 1 1 3 6 8 9 9 10 10 9 9 8 9 9 8 8 9 8 7 6 5 5 6 8 10 11 12 13 12 11 10 10 9 9 8 7 7 6 5
0 0 0 0 0 0 0 0 0 0 0 1 3 6 8 8 9 8 7 7 7 7 8 8 7 7 7 8 7 6 5 6 6 8 10 11 12 12 11 10 10 9 9 9 8 8 7 7 6
0 0 0 0 0 0 0 0 0 0 0 1 3 5 7 8 8 7 6 5 6 7 7 7 6 5 5 6 6 6 6 6 6 7 9 10 11 11 10 9 9 9 8 8 8 8 7 7 7
0 0 0 0 0 0 0 0 0 0 1 2 3 5 6 7 6 5 5 5 5 6 6 6 5 5 4 5 5 6 6 6 6 7 9 9 10 11 10 9 8 8 8 8 8 7 7 7 8
0 0 0 0 0 0 0 0 0 1 2 2 3 3 4 4 4 3 3 3 4 4 4 4 4 4 4 4 5 5 6 6 6 7 8 9 9 9 9 8 8 8 8 8 7 6 6 6 7
0 0 0 0 0 0 0 0 0 1 2 2 2 2 2 2 2 2 1 1 2 2 2 3 3 4 4 4 4 5 5 5 6 7 8 8 8 8 8 7 7 7 7 7 6 6 6 6 5
0 0 0 0 0 0 0 0 1 1 2 2 1 1 1 1 1 1 0 1 1 1 1 2 3 3 4 3 3 4 4 4 4 5 6 7 7 7 7 7 7 7 7 7 6 5 5 5 4
0 0 0 0 0 0 0 0 0 1 1 1 1 1 1 1 0 0 0 1 1 1 1 2 3 3 3 3 3 3 3 4 4 4 5 6 7 7 6 6 6 6 6 5 4 3 3 3 3
0 0 0 0 0 0 0 0 0 1 1 1 1 1 0 0 0 0 1 1 1 1 1 2 3 3 3 3 3 3 4 4 4 4 5 5 6 6 6 5 5 5 4 4 3 2 2 1 1
0 0 0 0 0 0 0 0 0 1 1 1 0 0 0 0 0 1 1 1 1 1 2 3 4 4 3 3 3 3 4 4 4 4 5 5 5 5 4 4 4 3 3 2 2 1 1 1 1
0 0 0 0 0 0 0 0 0 1 1 0 0 0 0 0 0 0 1 1 1 2 3 4 4 4 3 3 3 3 3 3 3 3 4 4 4 3 3 3 3 2 2 1 1 1 1 1 1
0 0 0 0 0 0 0 0 0 1 1 0 0 0 0 0 0 0 0 1 1 2 3 4 4 3 2 2 2 2 2 2 2 2 2 3 2 2 3 3 2 2 1 1 1 1 1 1 1
0 0 0 0 0 0 0 0 0 1 1 0 0 0 0 0 0 1 1 1 1 2 3 3 3 3 2 2 1 1 1 1 1 1 1 1 1 1 2 2 1 1 1 1 1 1 1 1 1
0 0 0 0 0 0 0 0 0 0 0 0 0 0 0 0 1 1 1 1 1 2 2 3 3 3 2 1 1 1 0 0 0 0 0 1 1 1 1 1 1 1 1 1 1 1 1 1 1
Wind_Speed
11 12 10 8 6 5 3 10 13 15 15 13 10 8 11 17 13 8 10 18 24 21 19 19 16 14 13 13 12 12 12 13 12 11 10 9 7 6 6 6 6 6 6 6 6 6 7 7 7
11 15 11 7 4 4 2 13 16 13 9 8 8 7 12 15 11 8 10 18 23 20 18 17 17 15 14 13 12 12 12 12 12 11 10 9 8 6 6 5 5 5 5 5 5 5 5 5 5
13 15 8 7 2 3 4 13 11 10 9 7 7 11 10 9 9 6 12 17 21 18 16 17 17 16 15 14 12 12 11 11 11 10 10 9 8 8 7 7 6 5 5 5 4 4 4 5 5
9 8 9 8 3 3 9 11 6 10 9 6 6 11 12 6 5 9 13 16 20 18 17 18 16 16 15 14 13 12 11 10 10 10 9 9 9 8 8 8 7 6 6 6 5 5 5 5 5
9 8 11 7 1 7 9 9 4 7 6 7 5 14 11 6 8 12 12 17 18 17 18 18 16 15 14 14 13 12 11 10 10 9 9 9 9 9 9 8 8 7 6 6 7 7 6 6 6
7 9 11 7 3 5 8 5 1 5 6 4 4 12 10 8 10 12 13 14 17 18 19 16 17 15 14 13 13 12 11 11 10 9 9 8 8 9 9 9 9 8 8 7 7 8 8 8 7
10 11 15 13 4 5 6 2 2 4 4 8 5 8 12 12 12 12 12 11 15 18 20 16 15 14 14 14 13 12 11 11 11 11 10 10 10 10 10 10 10 10 10 10 9 9 9 9 9
9 9 16 15 6 8 7 4 3 3 6 6 4 8 13 13 12 13 11 9 14 17 20 16 16 14 13 12 13 13 12 12 12 12 12 12 12 12 13 12 13 13 11 11 11 11 11 11 11
11 9 13 13 8 10 8 6 3 1 4 3 1 8 17 15 13 14 12 10 11 13 16 16 17 14 13 13 14 14 13 13 12 12 13 12 10 12 12 16 16 16 15 14 14 14 14 13 13
9 11 16 10 10 9 7 6 7 5 5 7 4 12 17 15 12 12 12 11 10 12 13 12 14 14 12 12 12 10 10 11 10 9 11 10 9 8 10 15 19 20 19 17 16 15 14 12 9
12 15 16 15 10 10 8 9 8 8 5 8 7 11 12 15 10 10 11 11 10 9 11 11 11 12 11 6 9 7 7 8 11 12 9 8 7 7 7 5 9 12 14 11 12 13 10 10 9
14 14 14 12 12 13 11 11 10 10 6 10 9 7 9 13 12 11 10 10 11 8 10 11 10 10 7 6 7 7 7 6 8 10 10 8 6 6 5 4 7 8 7 8 8 7 10 11 9
9 12 15 14 11 12 14 13 13 11 5 7 6 2 2 5 9 11 11 10 11 9 8 9 8 8 6 4 3 5 6 6 8 7 9 8 7 8 7 4 4 5 4 7 7 6 6 6 6
11 10 11 14 15 13 14 13 14 14 5 4 3 1 2 1 4 9 10 9 10 11 9 8 9 8 6 5 4 5 5 4 6 6 9 11 8 6 5 5 4 4 4 4 5 6 5 5 5
9 13 15 17 18 14 11 12 14 14 4 0 2 2 7 10 7 3 5 7 8 9 8 7 9 9 8 8 9 8 8 8 6 5 7 10 10 6 5 4 4 4 5 5 3 5 4 5 5
12 14 17 19 15 7 5 11 9 4 1 1 2 3 7 8 7 7 5 2 2 5 6 6 9 10 10 8 7 8 8 8 6 5 6 8 9 8 6 5 5 5 3 3 2 2 2 3 3
16 17 18 16 9 5 6 9 2 2 2 3 2 2 6 5 3 3 3 2 4 4 2 4 5 4 5 7 6 8 7 6 5 5 4 6 8 8 6 5 5 5 3 3 4 3 2 2 3
12 13 10 7 7 4 4 11 11 4 3 3 1 1 3 1 2 1 2 3 3 4 3 4 5 6 5 4 5 5 7 6 6 6 5 5 4 6 6 5 5 5 5 4 4 4 3 3 4
12 13 13 11 3 3 7 12 16 15 6 5 3 3 1 1 3 1 2 3 2 2 2 3 4 4 3 3 4 4 5 5 6 7 8 7 6 6 5 6 5 5 6 6 6 5 6 5 4
11 10 12 11 8 9 11 14 16 17 13 4 1 1 2 3 4 4 4 3 2 2 3 4 3 4 4 4 3 4 5 5 6 6 7 8 8 7 7 7 6 6 6 7 7 6 5 5 5
10 11 11 13 16 16 19 21 21 20 8 9 5 2 1 3 5 6 4 2 1 1 3 4 3 3 5 5 5 6 5 6 7 7 6 8 8 8 8 8 7 7 7 7 7 8 9 7 5
8 10 12 12 14 15 18 17 16 5 12 10 7 6 6 3 2 2 1 2 3 3 4 3 3 4 4 5 6 8 8 9 8 7 6 7 8 9 9 9 8 7 7 7 8 8 7 7 5
9 12 14 16 17 18 18 17 14 3 13 9 7 7 6 4 2 1 2 2 3 5 5 5 5 4 4 5 7 8 10 9 8 8 8 8 7 8 8 8 6 7 6 7 7 6 5 4 4
7 11 16 18 16 17 11 12 8 5 11 13 10 7 5 4 4 4 3 2 2 4 4 5 5 6 6 7 8 9 10 10 11 11 10 8 6 6 8 7 6 6 5 6 5 4 4 3 2
6 9 10 10 7 3 2 9 6 7 8 9 8 6 3 4 4 4 3 3 3 4 4 4 5 6 7 8 9 9 9 9 10 9 9 8 7 6 6 7 6 6 5 5 4 3 3 3 3
6 8 8 10 11 13 12 9 2 9 7 5 2 2 4 6 5 3 3 3 2 3 3 4 5 6 8 9 9 8 8 6 5 7 7 7 6 6 6 7 7 7 6 5 4 3 3 3 3
7 7 10 10 12 15 10 8 5 8 3 1 3 5 6 6 6 7 5 3 4 4 3 3 4 6 8 8 8 6 5 5 5 5 5 5 4 4 4 5 6 6 6 5 4 3 4 4 4
9 8 6 7 9 12 12 12 5 3 3 4 4 7 8 8 9 8 4 4 4 3 1 1 1 3 5 5 5 4 5 5 6 6 7 6 6 5 3 1 2 3 3 3 3 4 4 5 4
9 10 10 9 9 11 14 11 10 9 7 7 7 8 9 11 13 8 4 4 3 3 2 2 2 2 2 3 3 4 4 5 6 6 7 7 7 8 7 5 2 2 3 4 4 5 5 6 5
11 9 9 9 11 13 14 14 9 6 8 9 9 8 8 8 9 7 5 3 3 3 4 3 3 3 2 1 2 2 3 4 5 6 7 7 7 7 7 6 4 1 1 2 3 5 5 6 6
Wind_Direction
262 255 243 257 254 266 301 75 64 63 59 64 49 30 40 48 45 75 121 122 113 122 130 133 132 131 129 134 142 145 145 144 144 144 141 137 134 130 128 127 124 118 113 112 112 112 114 117 120
277 269 250 246 253 322 2 77 69 64 61 76 76 43 56 66 62 97 117 116 119 125 137 138 136 134 132 132 138 146 149 148 146 146 145 145 148 151 154 155 152 144 135 132 135 137 136 138 143
266 264 266 246 169 182 94 83 87 96 76 51 76 67 51 58 82 114 121 127 121 126 134 133 142 137 137 137 139 143 147 149 149 149 151 155 162 171 173 170 172 169 161 159 163 166 166 170 178
271 257 234 254 307 61 85 99 121 111 97 67 43 79 72 52 85 125 132 133 120 130 133 138 146 143 143 144 145 147 150 154 157 159 164 170 177 184 181 175 182 186 184 182 183 189 193 198 204
260 259 264 282 20 68 74 85 71 69 63 56 45 87 82 85 103 119 140 135 131 138 132 143 149 149 149 150 152 155 158 161 166 171 176 183 189 193 190 186 192 199 203 206 206 204 207 213 219
272 281 292 315 1 72 85 87 0 63 78 86 33 97 98 114 119 136 147 147 141 139 133 143 151 155 157 159 162 166 168 169 175 182 187 190 191 193 196 199 202 204 209 217 220 214 215 218 223
281 298 296 291 266 103 61 23 52 42 44 50 21 87 120 137 135 144 145 158 144 137 131 148 155 161 165 168 171 176 179 180 186 193 199 202 203 205 207 210 213 215 212 209 215 222 227 231 233
285 294 292 296 288 94 75 332 51 360 90 62 349 73 129 130 147 140 144 166 147 140 140 154 159 162 169 174 180 185 191 195 199 203 207 209 212 215 215 214 216 218 216 214 216 223 230 237 241
270 268 279 305 349 75 62 344 10 188 126 143 187 81 117 133 145 143 154 169 155 149 146 161 160 164 174 179 179 186 197 205 209 214 219 219 221 217 213 220 214 213 215 215 217 223 230 236 243
239 263 274 314 343 358 31 327 327 291 224 184 175 117 126 137 149 158 162 169 163 153 157 163 163 163 181 191 168 186 196 199 208 215 208 211 226 238 225 208 209 207 212 214 218 223 229 233 244
248 260 283 306 332 329 323 307 313 299 331 57 69 126 138 136 154 173 172 173 162 163 165 165 158 158 186 194 162 189 199 191 197 219 213 209 221 231 238 201 194 204 210 215 218 220 224 229 229
251 273 291 297 304 304 300 298 303 304 352 63 60 95 137 154 167 178 177 175 160 177 177 168 158 162 196 203 184 189 199 187 189 200 213 210 209 236 233 205 180 194 205 209 219 203 212 225 235
257 268 276 279 274 273 275 277 284 281 310 68 61 67 171 199 176 174 171 173 160 177 192 166 161 164 188 232 245 208 208 202 199 203 199 216 206 212 226 217 199 208 216 202 209 216 216 221 237
285 289 282 284 278 270 267 267 269 270 260 74 59 328 301 266 168 157 159 165 163 175 192 174 170 178 190 208 229 268 253 221 225 204 198 203 216 210 212 205 199 209 228 247 207 211 217 221 228
269 281 273 261 250 246 254 263 262 266 258 125 308 61 44 25 17 55 138 159 174 177 194 186 183 190 200 214 217 229 240 247 235 222 207 197 209 213 212 215 210 212 217 227 224 226 224 228 231
257 254 258 256 234 220 235 268 285 310 300 16 341 59 78 46 19 24 38 58 239 206 194 196 212 200 200 213 228 239 240 242 241 229 215 207 212 211 215 219 217 206 198 202 209 223 244 258 262
243 242 252 256 182 205 246 276 290 73 20 354 1 28 93 88 30 11 348 274 274 275 229 203 243 251 208 211 229 248 264 270 275 263 238 216 212 212 215 229 228 220 214 205 217 203 205 246 269
304 298 274 266 121 120 291 295 287 236 181 254 263 98 95 122 121 77 288 261 240 259 251 247 259 278 287 268 255 259 266 269 270 271 274 269 236 221 218 227 229 237 243 226 211 213 216 219 232
320 314 319 316 8 338 294 288 290 291 253 229 224 131 119 98 95 71 291 291 274 294 300 279 275 287 285 279 275 270 270 272 275 276 271 268 262 248 229 246 238 225 239 239 223 214 222 223 217
291 295 292 292 329 323 300 285 278 272 259 196 160 126 164 158 160 186 217 239 261 300 318 304 295 313 303 286 285 272 272 270 263 257 264 261 259 255 247 237 246 242 243 242 232 223 225 225 210
283 300 311 326 328 313 297 282 271 258 182 128 146 164 172 159 167 175 187 175 244 322 312 309 337 316 304 308 296 282 273 263 260 251 244 238 239 239 239 243 244 246 244 243 234 225 227 229 220
285 316 332 315 298 289 287 290 289 253 144 151 154 154 149 145 149 138 71 34 337 333 324 333 320 291 283 283 279 281 280 275 273 272 264 251 240 238 237 239 239 240 241 243 241 232 225 227 228
310 319 308 288 277 275 272 272 278 196 148 147 157 162 161 166 212 250 278 296 313 326 333 328 314 307 296 279 272 272 271 271 273 274 271 261 252 241 238 233 234 238 240 241 240 238 219 214 216
306 298 284 269 258 261 303 315 308 77 142 155 168 176 178 225 246 243 254 279 312 323 320 319 333 332 323 306 292 278 274 275 277 280 281 278 265 246 232 224 226 232 232 234 233 222 200 185 207
286 295 301 309 298 258 290 278 281 132 128 147 161 169 208 264 278 281 300 308 300 297 298 319 336 335 325 313 305 296 288 283 279 280 281 280 273 257 233 220 214 215 213 210 197 193 181 177 200
281 272 286 314 320 320 303 286 348 112 107 109 139 231 265 278 277 284 284 268 291 309 328 353 355 338 329 322 316 314 312 307 306 304 297 288 279 266 246 223 214 209 205 201 190 188 192 192 206
284 279 311 314 297 291 297 324 86 100 93 179 241 255 265 282 297 290 281 324 356 352 4 3 353 340 334 332 333 340 353 357 348 339 326 315 304 288 262 224 212 207 201 198 186 197 204 196 198
240 288 310 299 298 303 308 317 22 50 274 252 286 307 298 298 308 311 343 355 353 348 344 320 337 330 333 337 341 3 12 16 13 14 11 2 357 352 354 273 191 181 179 178 179 195 193 173 177
255 245 261 280 290 299 300 301 317 335 326 314 319 321 323 329 329 325 337 334 329 318 279 217 237 269 306 333 351 3 11 17 18 19 15 15 18 18 23 20 47 119 155 170 175 175 164 155 153
281 275 286 285 283 282 284 290 306 349 330 322 323 328 338 338 325 317 314 320 318 299 274 247 231 236 236 258 307 345 2 13 19 22 18 15 16 14 12 9 352 312 140 145 130 123 119 113 103